Terug naar catalogus

CZ-6A DEB

ActiefSSO
NORAD 54436·DEBRIS·🇨🇳 China

Gelanceerd Nov 11, 2022 vanaf Taiyuan Satellite Launch Center

Loading…

Volgende Passages (komende 24 uur)

TLE

VersSource: Space-Track

Epoch: Sep 14, 2026, 18:51 UTC

1 54436U 22151FL  26257.78548299  .00000166  00000-0  76735-4 0  9992
2 54436  98.6022 264.7943 0102468 161.5462 198.9481 14.30076689200176

Volg CZ-6A DEB in realtime met AllMySat

Download on the App Store